Weather History for PAGS - September, 2012

Change the Weather History Date:

Thursday, September 6, 2012

  Actual Average Record
Temperature  
Mean Temperature 54 °F -  
Max Temperature 57 °F 60 °F 75 °F (1986)
Min Temperature 51 °F 42 °F 29 °F (1984)
Degree Days  
Heating Degree Days 11    
Growing Degree Days 4 (Base 50)    
Moisture  
Dew Point 44 °F    
Average Humidity 68    
Maximum Humidity 77    
Minimum Humidity 63    
Precipitation  
Precipitation 0.00 in - - ()
Sea Level Pressure  
Sea Level Pressure 30.27 in    
Wind  
Wind Speed 7 mph (SSW)    
Max Wind Speed 14 mph    
Max Gust Speed 23 mph    
Visibility 10 miles    
Events      
Averages and records for this station are not official NWS values.
T = Trace of Precipitation, MM = Missing Value Source: NWS Daily Summary

Daily Weather History Graph

Daily Weather History Graph

Search for Another Location

Airport or City:

Trip Planner

Search our weather history database for the weather conditions in past years. The results will help you decide how hot, cold, wet, or windy it might be!

Date:

Astronomy

Sep. 06, 2012 Rise Set
Actual Time 6:14 AM AKDT 7:46 PM AKDT
Civil Twilight 5:32 AM AKDT 8:27 PM AKDT
Nautical Twilight 4:40 AM AKDT 9:19 PM AKDT
Astronomical Twilight 3:39 AM AKDT 10:19 PM AKDT
Moon 9:25 PM AKDT (9/6) 1:56 PM AKDT (9/6)
Length of Visible Light 14h 54m
Length of Day
13h 32m
Waning Gibbous, 66% of the Moon is Illuminated
Sep 6
Waning Gibbous
Sep 8
Last Quarter
Sep 15
New
Sep 22
First Quarter
Sep 29
Full

Hourly Weather History & Observations

Time (AKDT) Temp. Dew Point Humidity Pressure Visibility Wind Dir Wind Speed Gust Speed Precip Events Conditions
12:16 AM 53.6 °F 46.4 °F 77% 30.19 in 10.0 mi SSW 3.5 mph - N/A   Mostly Cloudy
12:36 AM 53.6 °F 44.6 °F 72% 30.19 in 10.0 mi ESE 4.6 mph - N/A   Mostly Cloudy
12:56 AM 53.6 °F 44.6 °F 72% 30.19 in 10.0 mi East 4.6 mph - N/A   Mostly Cloudy
1:16 AM 53.6 °F 44.6 °F 72% 30.19 in 10.0 mi South 8.1 mph - N/A   Mostly Cloudy
1:36 AM 53.6 °F 44.6 °F 72% 30.19 in 10.0 mi SSW 10.4 mph 16.1 mph N/A   Scattered Clouds
1:56 AM 53.6 °F 44.6 °F 72% 30.20 in 10.0 mi South 9.2 mph - N/A   Mostly Cloudy
2:16 AM 53.6 °F 44.6 °F 72% 30.19 in 10.0 mi SSW 5.8 mph - N/A   Mostly Cloudy
2:36 AM 53.6 °F 44.6 °F 72% 30.20 in 10.0 mi SSW 9.2 mph - N/A   Mostly Cloudy
2:56 AM 53.6 °F 44.6 °F 72% 30.20 in 10.0 mi SSW 6.9 mph - N/A   Mostly Cloudy
3:16 AM 53.6 °F 44.6 °F 72% 30.20 in 10.0 mi SSW 9.2 mph - N/A   Overcast
3:36 AM 53.6 °F 44.6 °F 72% 30.21 in 10.0 mi SSW 11.5 mph 17.3 mph N/A   Overcast
3:56 AM 53.6 °F 44.6 °F 72% 30.21 in 10.0 mi SW 9.2 mph 18.4 mph N/A   Scattered Clouds
4:16 AM 53.6 °F 44.6 °F 72% 30.21 in 10.0 mi SW 9.2 mph - N/A   Scattered Clouds
4:36 AM 53.6 °F 44.6 °F 72% 30.21 in 10.0 mi SW 8.1 mph - N/A   Scattered Clouds
4:56 AM 53.6 °F 44.6 °F 72% 30.21 in 10.0 mi SSW 9.2 mph - N/A   Partly Cloudy
5:16 AM 53.6 °F 44.6 °F 72% 30.21 in 10.0 mi SSW 6.9 mph - N/A   Clear
5:36 AM 53.6 °F 44.6 °F 72% 30.21 in 10.0 mi SSW 10.4 mph - N/A   Scattered Clouds
5:56 AM 53.6 °F 44.6 °F 72% 30.21 in 10.0 mi SSW 10.4 mph - N/A   Scattered Clouds
6:16 AM 53.6 °F 44.6 °F 72% 30.22 in 10.0 mi SSW 8.1 mph - N/A   Scattered Clouds
6:36 AM 53.6 °F 44.6 °F 72% 30.23 in 10.0 mi SSW 8.1 mph - N/A   Partly Cloudy
6:56 AM 53.6 °F 44.6 °F 72% 30.23 in 10.0 mi SSW 10.4 mph 16.1 mph N/A   Clear
7:16 AM 53.6 °F 44.6 °F 72% 30.23 in 10.0 mi South 8.1 mph 16.1 mph N/A   Partly Cloudy
7:36 AM 53.6 °F 44.6 °F 72% 30.23 in 10.0 mi SW 4.6 mph - N/A   Partly Cloudy
7:56 AM 53.6 °F 44.6 °F 72% 30.24 in 10.0 mi South 4.6 mph - N/A   Scattered Clouds
8:16 AM 53.6 °F 44.6 °F 72% 30.24 in 10.0 mi South 5.8 mph - N/A   Mostly Cloudy
8:36 AM 53.6 °F 44.6 °F 72% 30.24 in 10.0 mi South 6.9 mph - N/A   Overcast
8:56 AM 53.6 °F 44.6 °F 72% 30.24 in 10.0 mi South 4.6 mph - N/A   Overcast
9:16 AM 55.4 °F 44.6 °F 67% 30.25 in 10.0 mi SSE 6.9 mph - N/A   Overcast
9:36 AM 55.4 °F 44.6 °F 67% 30.25 in 10.0 mi South 6.9 mph - N/A   Overcast
9:56 AM 55.4 °F 44.6 °F 67% 30.26 in 10.0 mi South 8.1 mph - N/A   Overcast
10:16 AM 55.4 °F 44.6 °F 67% 30.27 in 10.0 mi South 8.1 mph - N/A   Mostly Cloudy
10:36 AM 55.4 °F 44.6 °F 67% 30.27 in 10.0 mi South 6.9 mph - N/A   Mostly Cloudy
10:56 AM 55.4 °F 44.6 °F 67% 30.28 in 10.0 mi SSW 10.4 mph - N/A   Overcast
11:16 AM 55.4 °F 44.6 °F 67% 30.27 in 10.0 mi SSW 10.4 mph - N/A   Overcast
11:36 AM 55.4 °F 44.6 °F 67% 30.28 in 10.0 mi South 10.4 mph - N/A   Mostly Cloudy
11:56 AM 57.2 °F 44.6 °F 63% 30.28 in 10.0 mi SSW 10.4 mph 16.1 mph N/A   Overcast
12:16 PM 57.2 °F 44.6 °F 63% 30.28 in 10.0 mi SSW 12.7 mph 20.7 mph N/A   Overcast
12:36 PM 57.2 °F 44.6 °F 63% 30.29 in 10.0 mi SSW 11.5 mph 16.1 mph N/A   Scattered Clouds
12:56 PM 57.2 °F 44.6 °F 63% 30.29 in 10.0 mi SSW 11.5 mph 17.3 mph N/A   Clear
1:16 PM 57.2 °F 44.6 °F 63% 30.30 in 10.0 mi SSW 11.5 mph 17.3 mph N/A   Scattered Clouds
1:36 PM 57.2 °F 44.6 °F 63% 30.30 in 10.0 mi SSW 11.5 mph 17.3 mph N/A   Mostly Cloudy
1:56 PM 57.2 °F 44.6 °F 63% 30.30 in 10.0 mi SSW 11.5 mph 19.6 mph N/A   Overcast
2:16 PM 57.2 °F 44.6 °F 63% 30.30 in 10.0 mi SW 10.4 mph 18.4 mph N/A   Mostly Cloudy
2:36 PM 57.2 °F 44.6 °F 63% 30.30 in 10.0 mi SW 12.7 mph 17.3 mph N/A   Partly Cloudy
2:56 PM 57.2 °F 44.6 °F 63% 30.30 in 10.0 mi SW 13.8 mph 23.0 mph N/A   Partly Cloudy
3:16 PM 57.2 °F 44.6 °F 63% 30.30 in 10.0 mi SW 13.8 mph 18.4 mph N/A   Partly Cloudy
3:36 PM 57.2 °F 44.6 °F 63% 30.30 in 10.0 mi SSW 13.8 mph - N/A   Clear
3:56 PM 57.2 °F 44.6 °F 63% 30.30 in 10.0 mi SSW 8.1 mph - N/A   Clear
4:16 PM 57.2 °F 44.6 °F 63% 30.30 in 10.0 mi SSW 11.5 mph - N/A   Clear
4:36 PM 55.4 °F 44.6 °F 67% 30.30 in 10.0 mi SSW 13.8 mph 18.4 mph N/A   Partly Cloudy
4:56 PM 55.4 °F 44.6 °F 67% 30.30 in 10.0 mi SW 6.9 mph 17.3 mph N/A   Partly Cloudy
5:16 PM 55.4 °F 44.6 °F 67% 30.31 in 10.0 mi SSW 4.6 mph - N/A   Partly Cloudy
5:36 PM 55.4 °F 44.6 °F 67% 30.31 in 10.0 mi South 5.8 mph - N/A   Partly Cloudy
5:56 PM 55.4 °F 44.6 °F 67% 30.31 in 10.0 mi SSE 6.9 mph - N/A   Mostly Cloudy
6:16 PM 55.4 °F 44.6 °F 67% 30.31 in 10.0 mi South 6.9 mph - N/A   Overcast
6:36 PM 55.4 °F 42.8 °F 63% 30.30 in 10.0 mi SSW 9.2 mph - N/A   Mostly Cloudy
6:56 PM 53.6 °F 42.8 °F 67% 30.31 in 10.0 mi SSW 5.8 mph - N/A   Partly Cloudy
7:16 PM 53.6 °F 42.8 °F 67% 30.31 in 10.0 mi South 3.5 mph - N/A   Clear
7:36 PM 53.6 °F 42.8 °F 67% 30.31 in 10.0 mi South 4.6 mph - N/A   Partly Cloudy
7:56 PM 53.6 °F 42.8 °F 67% 30.32 in 10.0 mi SSW 5.8 mph - N/A   Mostly Cloudy
8:16 PM 53.6 °F 42.8 °F 67% 30.32 in 10.0 mi South 4.6 mph - N/A   Mostly Cloudy
8:36 PM 53.6 °F 42.8 °F 67% 30.32 in 10.0 mi South 6.9 mph - N/A   Overcast
8:56 PM 53.6 °F 42.8 °F 67% 30.33 in 10.0 mi South 3.5 mph - N/A   Overcast
9:16 PM 53.6 °F 42.8 °F 67% 30.33 in 10.0 mi SSE 3.5 mph - N/A   Overcast
9:36 PM 53.6 °F 42.8 °F 67% 30.33 in 10.0 mi SSW 6.9 mph - N/A   Overcast
9:56 PM 53.6 °F 42.8 °F 67% 30.33 in 10.0 mi South 4.6 mph - N/A   Overcast
10:16 PM 51.8 °F 42.8 °F 71% 30.34 in 10.0 mi SSE 5.8 mph - N/A   Overcast
10:36 PM 51.8 °F 42.8 °F 71% 30.34 in 10.0 mi South 4.6 mph - N/A   Overcast
10:56 PM 51.8 °F 42.8 °F 71% 30.34 in 10.0 mi SSE 4.6 mph - N/A   Overcast
11:16 PM 51.8 °F 42.8 °F 71% 30.35 in 10.0 mi SE 3.5 mph - N/A   Overcast
11:36 PM 51.8 °F 42.8 °F 71% 30.35 in 10.0 mi Calm Calm - N/A   Mostly Cloudy
11:56 PM 51.8 °F 42.8 °F 71% 30.35 in 10.0 mi South 3.5 mph - N/A   Overcast